Temp
75 81 86 80 67 70 65 69 78 73 74 80 83 77 77 75 72 63 83 84 84 83 81 79 74 75 75 75 75 75 75 75 75 75 75 75 75 76 75 76 76 76 75 75 74 74 73 73 72
84 82 80 76 64 61 65 75 71 76 80 81 79 77 76 69 75 75 77 84 85 84 83 81 72 74 74 74 74 75 75 75 75 75 75 75 75 75 75 75 75 74 75 75 74 74 73 72 72
81 82 73 70 66 62 64 73 77 77 79 78 76 79 78 70 75 79 83 84 84 84 84 78 72 74 74 74 74 74 75 75 75 75 75 75 74 74 74 74 74 74 74 74 74 73 72 72 72
80 76 75 64 63 71 72 75 79 74 77 81 81 74 75 79 79 82 83 84 83 80 81 73 72 74 74 74 74 74 74 75 74 74 74 74 74 73 73 73 73 73 73 73 73 72 72 72 72
78 73 62 63 66 74 76 78 78 73 75 77 79 72 69 78 83 81 82 84 82 80 79 77 72 73 73 74 74 74 74 74 74 74 74 73 73 73 73 73 73 72 72 73 72 72 72 71 71
70 73 60 59 67 75 76 78 78 77 79 79 76 74 70 79 77 80 83 84 85 80 78 77 69 70 72 73 73 73 74 74 74 73 73 73 73 73 72 72 72 72 72 72 72 71 71 71 70
66 66 60 65 67 71 74 79 76 77 77 76 83 73 69 70 73 82 83 85 84 80 78 78 77 73 68 70 70 71 72 72 72 73 72 71 71 71 71 71 72 72 72 72 71 71 70 70 70
71 68 61 67 66 68 77 76 79 78 76 84 83 73 68 71 74 82 83 83 82 78 79 78 79 78 77 73 66 67 69 70 70 70 68 68 69 69 69 69 70 71 71 71 70 70 69 69 68
74 60 58 65 67 72 76 72 77 81 77 77 78 80 81 73 75 78 78 79 79 76 78 81 80 81 76 73 71 65 66 67 67 68 66 67 78 78 75 65 67 69 69 69 69 69 68 67 67
65 59 62 74 77 74 74 75 74 72 73 73 73 76 76 69 70 74 74 75 75 75 77 81 80 80 79 79 76 78 77 76 77 78 77 80 79 77 76 67 64 66 66 69 69 69 68 70 72
65 59 69 73 76 78 76 74 77 74 70 76 73 74 67 65 67 69 75 77 76 78 79 79 79 80 80 79 79 78 77 77 77 77 78 78 79 78 78 78 77 77 67 77 76 77 73 73 72
59 68 69 73 73 72 74 78 73 76 77 83 82 78 65 64 66 68 75 77 76 77 78 79 80 79 79 79 78 79 78 77 76 77 77 77 77 76 77 77 77 76 77 76 75 71 74 69 66
61 65 71 73 70 71 75 73 74 76 78 82 82 73 66 68 71 73 78 78 78 76 77 78 79 79 79 78 79 79 78 77 78 77 77 78 77 76 76 75 75 74 74 74 74 74 70 66 64
64 64 67 70 70 70 68 72 74 78 77 78 73 70 69 71 73 74 77 77 77 77 77 79 78 79 79 78 78 77 78 78 78 78 77 76 77 75 74 73 71 73 73 73 73 72 69 65 64
61 54 63 66 69 69 70 67 66 79 77 74 72 72 71 73 75 74 77 77 77 77 78 78 78 79 78 78 78 78 77 78 76 76 75 75 75 74 73 71 71 71 71 71 72 69 67 64 64
50 55 47 66 67 69 68 61 70 79 75 73 73 73 71 72 74 76 77 78 79 78 77 78 78 77 77 78 77 78 77 77 76 74 74 72 73 74 72 70 71 71 70 71 71 67 63 65 65
46 41 47 55 68 66 65 64 76 76 74 74 74 74 72 72 75 77 77 78 79 79 79 77 77 76 76 77 77 77 76 75 73 73 72 71 70 70 71 70 69 70 69 69 70 65 63 63 63
39 44 49 48 63 64 62 67 75 72 73 75 75 75 73 73 74 78 79 79 80 80 79 78 76 75 76 76 76 73 72 72 73 72 71 70 69 69 69 68 67 68 67 67 68 64 62 63 64
54 50 50 57 65 62 63 64 69 71 72 74 76 76 75 75 79 79 79 79 79 79 78 77 75 76 76 73 71 69 68 67 67 67 65 67 67 67 67 67 66 66 65 65 67 65 62 62 65
50 47 49 53 58 61 63 63 70 70 69 74 76 76 76 77 78 77 77 77 77 77 77 77 76 76 76 74 73 72 70 68 67 63 61 62 60 63 65 65 64 64 62 62 63 64 63 62 63
44 46 48 50 51 58 60 58 62 69 69 72 76 79 79 77 76 76 75 75 76 76 76 77 77 76 75 74 73 70 66 63 60 59 58 58 61 61 61 62 61 61 63 60 61 62 62 59 59
41 51 51 51 47 44 58 50 62 65 64 66 70 74 78 78 78 77 73 74 75 76 77 77 77 77 75 74 70 64 63 60 63 56 61 59 59 60 60 59 60 59 60 58 57 60 61 60 57
44 51 47 45 46 43 40 44 60 66 62 64 68 71 74 78 78 76 75 75 77 75 76 77 77 76 74 73 69 67 66 67 63 60 55 56 57 58 58 58 58 57 57 57 57 57 58 58 57
46 45 41 41 40 34 40 42 52 60 65 68 70 72 74 75 77 78 78 76 75 75 74 74 74 74 74 72 69 68 65 59 54 54 57 56 57 55 56 56 56 56 56 55 54 54 55 54 54
43 40 31 31 30 36 47 44 54 67 70 71 73 73 75 76 76 76 75 73 73 71 69 69 71 71 71 69 68 67 64 58 54 54 55 55 56 55 54 55 54 54 55 54 54 53 52 53 51
40 41 34 30 33 38 43 38 50 65 70 73 75 76 77 76 75 74 74 72 70 67 66 66 67 68 69 67 66 65 61 56 55 56 59 58 57 56 54 55 55 54 54 54 53 51 50 49 48
38 36 45 39 35 42 44 50 57 60 62 65 65 65 68 74 74 71 72 71 69 65 64 65 65 67 66 65 64 60 57 55 56 60 60 59 58 55 53 54 53 53 52 52 51 49 47 47 47
43 48 37 38 30 34 47 47 52 52 57 62 61 61 63 68 68 66 67 66 66 64 64 65 66 65 64 63 60 56 56 57 61 59 57 57 55 53 52 52 52 51 51 50 50 47 46 46 44
36 36 40 44 39 38 40 47 57 62 61 61 61 62 59 60 62 62 62 63 62 62 61 62 63 62 61 61 59 56 56 58 57 56 56 55 53 52 51 51 50 50 49 49 48 46 44 44 42
47 42 43 38 34 40 37 46 55 56 57 54 58 58 61 60 61 61 60 59 58 58 58 59 60 59 59 59 57 56 56 56 56 56 55 53 52 51 51 50 49 49 48 47 47 45 44 44 41
MSLP
1014.12 1013.99 1013.10 1012.66 1011.56 1009.24 1007.26 1006.96 1006.82 1007.31 1007.63 1008.29 1008.59 1009.18 1009.34 1010.39 1010.90 1012.57 1013.84 1014.54 1015.27 1015.94 1017.01 1017.79 1018.32 1018.56 1018.86 1019.07 1019.21 1019.30 1019.42 1019.60 1019.76 1019.91 1019.99 1020.04 1020.06 1020.18 1020.36 1020.44 1020.41 1020.47 1020.63 1020.76 1020.82 1020.87 1020.91 1020.90 1020.85
1013.53 1013.78 1013.46 1011.60 1010.07 1007.84 1006.61 1006.60 1007.03 1007.35 1007.75 1008.76 1009.51 1009.93 1010.02 1011.39 1012.51 1013.38 1014.14 1014.80 1015.37 1016.00 1016.90 1017.61 1018.51 1018.83 1019.12 1019.35 1019.59 1019.64 1019.76 1019.94 1020.07 1020.22 1020.34 1020.41 1020.52 1020.62 1020.65 1020.71 1020.78 1020.86 1020.95 1021.06 1021.08 1021.09 1021.11 1021.07 1021.01
1013.87 1013.65 1012.63 1010.71 1008.99 1007.05 1006.47 1006.74 1006.83 1007.82 1008.61 1008.97 1009.53 1010.25 1010.53 1012.07 1013.15 1013.51 1014.19 1014.96 1015.53 1016.16 1016.66 1017.87 1018.68 1019.03 1019.34 1019.55 1019.75 1019.88 1020.03 1020.19 1020.33 1020.48 1020.59 1020.67 1020.85 1020.88 1020.92 1021.03 1021.11 1021.20 1021.24 1021.30 1021.36 1021.35 1021.35 1021.33 1021.27
1013.74 1013.64 1012.43 1010.27 1008.16 1007.22 1006.57 1006.92 1006.91 1008.30 1009.04 1009.07 1009.23 1010.31 1012.07 1013.00 1013.17 1013.79 1014.71 1015.13 1015.66 1016.59 1017.02 1018.34 1018.88 1019.23 1019.56 1019.78 1019.97 1020.12 1020.31 1020.50 1020.62 1020.83 1020.94 1021.07 1021.21 1021.30 1021.38 1021.44 1021.53 1021.58 1021.62 1021.60 1021.61 1021.60 1021.57 1021.52 1021.48
1013.94 1012.89 1011.47 1009.46 1007.99 1006.96 1007.13 1007.30 1007.58 1008.19 1008.64 1009.13 1009.58 1010.65 1012.44 1013.34 1013.64 1014.49 1014.91 1015.30 1015.66 1016.67 1017.42 1018.39 1019.03 1019.40 1019.72 1019.99 1020.15 1020.38 1020.54 1020.73 1020.87 1021.03 1021.20 1021.39 1021.46 1021.57 1021.67 1021.75 1021.84 1021.92 1021.94 1021.89 1021.87 1021.86 1021.83 1021.78 1021.77
1013.27 1012.07 1010.65 1009.01 1007.75 1007.03 1007.43 1007.62 1007.68 1007.98 1008.23 1008.89 1009.76 1010.74 1012.69 1013.72 1014.43 1014.68 1015.04 1015.36 1015.79 1016.74 1017.59 1018.57 1019.30 1019.57 1019.83 1020.14 1020.39 1020.58 1020.71 1020.89 1021.09 1021.30 1021.49 1021.65 1021.77 1021.89 1022.03 1022.06 1022.09 1022.14 1022.15 1022.13 1022.12 1022.13 1022.10 1022.06 1022.05
1013.13 1011.66 1010.30 1008.82 1007.66 1006.76 1007.21 1007.75 1007.65 1007.73 1008.19 1008.89 1008.98 1010.48 1013.25 1014.32 1015.13 1014.67 1015.10 1015.54 1015.97 1016.91 1017.60 1018.35 1019.02 1019.68 1020.09 1020.35 1020.59 1020.84 1020.94 1021.13 1021.33 1021.53 1021.73 1021.92 1022.08 1022.20 1022.32 1022.33 1022.33 1022.35 1022.37 1022.38 1022.37 1022.34 1022.32 1022.23 1022.20
1013.13 1012.10 1010.26 1008.63 1007.44 1006.64 1007.16 1007.84 1007.82 1007.91 1008.42 1008.83 1009.66 1010.03 1012.38 1014.12 1015.07 1014.72 1015.18 1015.82 1016.40 1017.43 1017.56 1018.14 1018.71 1019.36 1019.73 1020.47 1020.80 1021.05 1021.23 1021.42 1021.62 1021.80 1022.01 1022.20 1022.24 1022.34 1022.41 1022.49 1022.56 1022.60 1022.57 1022.53 1022.49 1022.40 1022.34 1022.22 1022.22
1013.48 1011.98 1009.77 1008.17 1007.45 1006.75 1007.53 1007.87 1008.29 1008.46 1008.71 1009.58 1010.25 1010.35 1011.14 1013.86 1014.75 1014.82 1015.34 1015.96 1016.59 1017.56 1017.75 1017.84 1018.48 1018.86 1019.54 1020.35 1020.84 1021.24 1021.48 1021.69 1021.86 1022.04 1022.23 1022.15 1021.59 1021.80 1022.06 1022.61 1022.71 1022.73 1022.71 1022.64 1022.55 1022.45 1022.32 1022.21 1022.33
1013.17 1011.35 1009.60 1008.17 1007.25 1006.99 1007.53 1007.71 1008.20 1008.94 1009.01 1009.60 1010.54 1011.53 1012.53 1014.35 1014.88 1014.73 1015.12 1015.67 1016.48 1017.16 1017.58 1017.73 1018.38 1018.75 1019.35 1019.75 1020.58 1020.65 1021.13 1021.34 1021.41 1021.46 1021.71 1021.38 1021.65 1021.98 1022.07 1022.50 1022.65 1022.66 1022.55 1022.51 1022.36 1022.23 1022.15 1022.02 1022.15
1012.58 1011.05 1009.76 1008.54 1008.12 1007.55 1007.31 1007.75 1008.16 1008.31 1008.58 1008.79 1009.87 1011.36 1013.39 1014.46 1015.01 1015.19 1015.07 1015.53 1016.14 1016.78 1017.36 1017.80 1018.34 1018.84 1019.14 1019.57 1020.06 1020.42 1020.87 1021.05 1021.26 1021.46 1021.55 1021.69 1021.69 1021.85 1021.80 1021.69 1021.83 1021.97 1022.16 1021.87 1021.90 1021.70 1021.95 1022.30 1022.53
1012.60 1010.98 1009.97 1008.86 1008.91 1008.44 1007.51 1007.45 1007.77 1007.93 1007.97 1008.25 1009.27 1011.10 1013.41 1014.20 1014.74 1015.09 1014.94 1015.34 1016.01 1016.56 1017.19 1017.72 1018.15 1018.71 1019.11 1019.52 1019.93 1020.16 1020.57 1020.99 1021.23 1021.51 1021.66 1021.67 1021.62 1021.83 1021.72 1021.70 1021.78 1021.91 1021.90 1021.92 1021.92 1022.04 1022.10 1022.78 1023.30
1012.43 1010.98 1010.06 1009.51 1009.35 1008.66 1008.03 1007.58 1007.48 1007.62 1008.28 1008.53 1009.22 1011.32 1012.96 1013.77 1014.22 1014.64 1014.73 1015.31 1015.88 1016.43 1017.05 1017.60 1017.98 1018.49 1018.98 1019.37 1019.69 1019.94 1020.35 1020.85 1021.00 1021.34 1021.58 1021.61 1021.60 1021.69 1021.82 1021.91 1022.01 1022.18 1022.30 1022.17 1022.05 1022.11 1022.44 1023.33 1023.70
1012.69 1011.70 1010.49 1009.71 1009.22 1008.81 1008.48 1007.77 1007.72 1007.28 1008.37 1008.84 1010.06 1011.20 1012.41 1012.99 1013.53 1014.07 1014.35 1014.89 1015.56 1016.11 1016.70 1017.35 1017.83 1018.19 1018.69 1019.10 1019.53 1019.95 1020.29 1020.54 1020.84 1021.08 1021.38 1021.69 1021.57 1021.70 1021.94 1022.13 1022.37 1022.38 1022.56 1022.48 1022.44 1022.32 1022.71 1023.35 1023.75
1012.79 1012.19 1011.06 1009.91 1008.94 1008.53 1008.63 1007.81 1007.56 1007.12 1008.17 1008.96 1009.93 1010.83 1011.87 1012.50 1013.29 1013.56 1013.96 1014.52 1015.21 1015.83 1016.45 1017.09 1017.73 1018.14 1018.49 1018.88 1019.49 1019.86 1020.22 1020.53 1020.83 1021.18 1021.64 1021.75 1021.81 1021.90 1022.00 1022.39 1022.51 1022.56 1022.71 1022.66 1022.53 1022.66 1023.39 1023.73 1023.95
1013.47 1012.80 1011.10 1009.17 1008.92 1008.52 1008.38 1007.01 1006.85 1006.97 1007.79 1008.58 1009.39 1010.26 1011.31 1012.02 1012.75 1013.41 1013.80 1014.39 1014.98 1015.57 1016.15 1016.87 1017.57 1018.05 1018.43 1018.78 1019.29 1019.65 1020.07 1020.52 1020.87 1021.38 1021.73 1022.02 1022.15 1022.10 1022.20 1022.40 1022.39 1022.62 1022.74 1022.60 1022.57 1023.03 1023.84 1023.82 1024.16
1013.35 1011.85 1010.46 1009.39 1008.71 1008.41 1007.98 1006.42 1005.44 1006.87 1007.46 1007.90 1008.66 1009.52 1010.56 1011.37 1012.10 1012.74 1013.44 1014.01 1014.53 1015.08 1015.79 1016.64 1017.44 1017.87 1018.36 1018.68 1019.15 1019.55 1020.11 1020.62 1021.13 1021.49 1021.74 1022.07 1022.28 1022.47 1022.49 1022.62 1022.78 1022.75 1022.89 1022.89 1022.84 1023.47 1024.10 1024.14 1024.40
1011.41 1011.02 1010.11 1009.24 1008.76 1008.41 1007.66 1006.22 1005.13 1006.50 1006.92 1007.06 1007.93 1008.82 1009.66 1010.33 1010.95 1011.81 1012.72 1013.49 1014.07 1014.69 1015.42 1016.27 1017.04 1017.59 1018.16 1018.59 1019.07 1019.90 1020.52 1020.85 1021.16 1021.39 1021.81 1022.22 1022.45 1022.64 1022.74 1022.97 1023.14 1023.08 1023.18 1023.22 1023.12 1023.61 1024.11 1024.24 1024.48
1010.96 1010.93 1009.74 1009.40 1008.45 1007.98 1007.08 1006.49 1006.04 1006.47 1006.63 1006.74 1007.16 1007.92 1008.63 1009.31 1010.17 1011.25 1012.18 1013.07 1013.78 1014.38 1014.97 1015.68 1016.42 1016.99 1017.72 1018.36 1018.99 1019.77 1020.19 1021.05 1021.52 1021.95 1022.40 1022.43 1022.55 1022.72 1022.84 1023.13 1023.36 1023.32 1023.40 1023.59 1023.36 1023.66 1023.92 1024.10 1024.48
1010.36 1010.39 1009.39 1009.33 1009.26 1008.25 1007.12 1006.38 1005.99 1006.17 1006.41 1006.23 1006.32 1006.99 1007.87 1008.66 1009.47 1010.61 1011.62 1012.51 1013.24 1013.90 1014.49 1015.10 1015.67 1016.34 1017.12 1017.84 1018.63 1019.27 1020.04 1020.79 1021.28 1022.27 1022.77 1022.83 1022.98 1023.05 1023.10 1023.37 1023.54 1023.68 1023.89 1024.00 1023.88 1023.88 1023.95 1024.35 1024.70
1010.18 1009.96 1009.86 1009.59 1009.95 1009.03 1007.87 1006.81 1006.14 1006.02 1006.53 1006.51 1006.20 1006.32 1007.01 1007.74 1008.71 1009.92 1010.99 1011.87 1012.68 1013.34 1013.88 1014.44 1015.08 1015.84 1016.71 1017.55 1018.31 1019.25 1020.50 1021.09 1021.86 1022.48 1022.91 1023.09 1023.14 1023.18 1023.35 1023.56 1023.85 1023.96 1023.85 1024.11 1024.32 1024.21 1024.14 1024.27 1024.82
1010.57 1010.34 1010.21 1010.27 1010.35 1009.49 1008.83 1006.01 1004.88 1005.40 1005.73 1005.89 1005.90 1005.99 1006.23 1007.04 1008.12 1009.27 1010.47 1011.30 1011.88 1012.58 1013.38 1014.01 1014.60 1015.32 1016.30 1017.09 1017.87 1018.91 1019.44 1020.17 1020.80 1021.91 1022.45 1023.01 1023.08 1023.16 1023.62 1023.90 1023.96 1024.18 1024.19 1024.45 1024.73 1024.60 1024.47 1024.45 1024.64
1010.77 1010.47 1010.81 1011.29 1010.72 1010.38 1010.36 1008.80 1004.45 1004.28 1004.03 1004.54 1005.06 1005.66 1006.08 1006.43 1007.17 1008.26 1009.33 1010.24 1011.07 1012.13 1012.70 1013.44 1014.13 1014.86 1015.77 1016.50 1017.47 1018.38 1018.94 1019.39 1020.55 1021.63 1022.47 1023.01 1023.28 1023.27 1023.81 1023.82 1024.26 1024.53 1024.55 1024.76 1024.79 1024.80 1024.76 1024.86 1024.96
1011.24 1011.15 1012.11 1012.62 1011.83 1010.67 1009.73 1008.59 1004.91 1002.83 1002.56 1003.36 1003.98 1004.57 1005.19 1005.99 1006.75 1007.60 1008.51 1009.85 1010.74 1011.64 1012.48 1013.06 1013.67 1014.36 1015.25 1016.09 1017.07 1017.78 1018.50 1019.68 1020.70 1021.52 1022.20 1022.91 1023.32 1023.35 1023.89 1023.99 1024.24 1024.51 1024.82 1024.78 1025.10 1025.25 1025.38 1025.45 1025.55
1011.65 1011.33 1012.90 1013.22 1011.94 1009.61 1008.50 1008.01 1003.91 1002.12 1002.17 1002.29 1002.71 1003.61 1004.50 1005.27 1006.17 1006.98 1008.05 1009.22 1010.39 1011.24 1012.42 1013.13 1013.62 1014.14 1015.00 1015.75 1016.72 1017.36 1018.14 1019.43 1020.11 1020.92 1021.44 1022.17 1022.78 1023.23 1023.58 1023.90 1024.36 1024.39 1024.72 1025.06 1025.25 1025.46 1025.69 1025.88 1026.17
1011.40 1011.03 1011.20 1010.41 1009.66 1009.29 1008.84 1005.82 1003.54 1003.24 1002.65 1002.53 1002.58 1002.88 1003.81 1004.74 1005.58 1006.44 1007.53 1008.90 1010.18 1011.23 1012.36 1012.96 1013.44 1014.04 1014.82 1015.73 1016.40 1017.14 1018.25 1019.27 1019.87 1020.56 1020.74 1021.63 1022.10 1022.71 1023.30 1023.58 1024.07 1024.51 1024.98 1025.26 1025.50 1025.60 1025.81 1026.26 1026.53
1011.96 1011.02 1010.94 1009.65 1009.13 1007.98 1006.67 1004.79 1004.01 1003.24 1002.78 1003.18 1003.58 1004.09 1004.40 1004.38 1005.30 1006.44 1007.61 1008.89 1010.16 1011.24 1012.03 1012.61 1013.18 1013.86 1014.80 1015.70 1016.25 1017.36 1018.42 1018.91 1019.29 1019.80 1020.73 1021.04 1021.70 1022.41 1022.95 1023.51 1024.02 1024.31 1024.90 1025.24 1025.60 1025.99 1026.21 1026.43 1026.87
1011.65 1011.00 1010.94 1010.30 1009.05 1006.91 1004.46 1003.64 1002.50 1003.08 1002.99 1003.31 1003.95 1004.52 1005.08 1005.55 1006.34 1007.39 1008.22 1009.21 1010.33 1011.21 1012.05 1012.65 1013.06 1013.67 1014.59 1015.53 1016.51 1017.37 1018.02 1018.64 1019.16 1019.94 1020.27 1020.98 1021.70 1022.35 1023.02 1023.26 1023.90 1024.46 1024.98 1025.43 1025.74 1026.19 1026.49 1026.79 1027.22
1012.13 1011.64 1011.00 1009.70 1008.49 1006.46 1004.67 1003.45 1003.00 1002.48 1002.76 1003.43 1004.22 1004.93 1005.52 1006.41 1007.35 1008.13 1008.75 1009.67 1010.66 1011.46 1012.28 1012.72 1013.10 1013.71 1014.69 1015.58 1016.45 1017.14 1017.78 1018.37 1019.05 1019.67 1020.43 1021.13 1021.72 1022.18 1022.80 1023.31 1023.79 1024.56 1025.13 1025.45 1025.74 1026.32 1026.64 1026.93 1027.37
1011.12 1011.00 1010.20 1008.99 1008.72 1007.24 1006.24 1004.18 1003.90 1003.70 1004.17 1004.79 1004.78 1005.59 1005.96 1006.48 1007.62 1008.48 1009.07 1009.98 1010.87 1011.77 1012.55 1012.95 1013.37 1014.13 1015.01 1015.66 1016.24 1016.84 1017.59 1018.18 1018.78 1019.53 1020.25 1021.04 1021.66 1022.19 1022.59 1023.07 1023.64 1024.38 1024.92 1025.36 1025.88 1026.20 1026.46 1026.63 1026.84
Wind_Speed
5 9 7 5 7 7 11 3 1 6 6 4 10 1 3 13 9 6 14 10 17 15 16 13 10 14 13 13 13 12 13 14 13 13 12 11 12 13 12 11 11 12 14 13 13 13 13 12 12
7 7 4 7 8 10 8 5 7 8 9 8 8 4 4 7 8 13 13 14 16 15 14 15 11 13 12 12 11 11 14 14 13 13 12 11 12 10 11 10 11 14 13 13 12 12 12 12 12
3 5 8 6 9 13 2 5 8 9 10 12 7 3 3 6 11 14 16 17 16 15 13 16 12 13 13 12 11 11 14 13 13 13 12 12 11 14 12 14 12 12 12 12 11 11 11 10 11
3 5 6 8 12 14 4 5 8 13 7 7 5 7 7 6 14 10 17 17 16 13 11 15 14 14 13 12 11 11 13 13 13 12 12 11 11 11 12 12 11 11 10 10 9 9 9 9 9
5 6 9 12 17 9 3 2 11 15 11 11 10 8 7 11 11 15 17 16 16 13 15 15 13 13 12 11 11 13 12 12 12 11 11 10 10 10 10 10 9 8 8 8 9 8 9 10 11
8 5 10 14 16 12 5 5 12 15 12 11 8 12 8 11 13 15 16 15 15 16 13 15 12 11 11 10 10 10 10 11 11 11 10 9 9 8 8 7 7 7 7 8 8 8 9 9 9
13 11 14 15 17 13 10 7 13 14 11 11 6 12 7 11 13 15 15 15 15 14 13 13 13 11 8 9 9 7 8 9 8 9 9 8 8 7 7 7 7 8 8 8 8 7 7 7 7
12 14 20 19 14 15 7 11 8 12 11 7 8 7 8 15 16 16 15 15 15 9 13 12 12 11 11 10 7 7 7 7 6 7 7 6 7 6 4 4 7 6 6 6 6 6 5 4 3
17 14 15 20 17 13 9 12 8 3 9 9 7 2 11 22 18 17 15 15 14 13 10 12 11 11 10 10 8 7 6 6 6 7 5 6 3 6 8 7 3 4 4 4 4 4 3 4 1
12 13 20 16 14 12 12 15 14 8 12 11 10 5 22 21 17 19 18 16 16 15 14 11 11 10 12 10 10 8 8 7 6 6 7 2 4 5 4 4 4 3 2 2 2 2 3 7 4
11 19 14 16 10 9 11 16 15 12 14 14 17 17 20 20 18 16 17 16 15 15 12 12 11 11 10 8 7 4 4 4 3 4 3 4 3 3 2 1 3 1 3 2 3 3 4 8 7
17 20 20 16 5 6 11 14 14 17 5 14 14 19 21 22 20 19 18 17 16 16 14 13 13 11 10 7 6 6 5 4 4 5 4 3 2 2 1 3 2 3 4 5 4 3 4 10 9
22 17 18 11 8 8 9 15 14 18 5 5 16 20 22 21 20 18 16 16 15 15 15 14 13 12 10 9 6 6 6 5 5 5 4 2 2 1 1 3 3 4 5 4 3 4 6 8 7
9 24 14 13 13 7 9 13 13 15 9 12 18 20 21 22 21 18 17 17 16 15 15 15 14 12 11 8 8 6 6 6 5 4 3 3 2 1 1 2 3 3 3 3 2 3 5 6 5
8 11 18 14 13 9 12 15 14 12 13 16 17 17 19 20 19 19 18 16 17 15 15 15 14 12 11 10 9 7 6 5 4 3 3 2 2 1 1 1 1 3 2 1 0 7 4 5 5
4 5 13 16 10 7 13 17 22 14 16 17 17 17 18 20 21 18 17 16 16 15 16 15 12 13 12 10 9 7 7 5 4 3 3 3 1 0 1 1 1 2 1 1 2 5 4 4 5
12 12 23 18 14 7 16 14 18 17 17 16 17 17 17 18 19 19 18 17 17 16 16 16 14 14 13 11 8 7 6 4 4 4 3 4 3 1 1 1 2 2 2 2 2 5 3 4 4
16 18 18 21 14 13 17 16 15 18 17 18 17 17 18 19 21 19 19 17 16 16 16 16 13 15 14 10 8 6 6 5 4 4 3 4 3 3 2 1 2 2 2 1 1 8 1 3 4
21 21 20 27 11 17 17 19 13 14 17 19 18 17 18 18 19 18 17 17 16 16 17 17 17 16 12 9 9 9 8 6 5 4 4 4 3 3 3 2 2 2 3 2 2 5 6 4 3
21 20 16 7 7 12 18 19 19 12 18 20 20 19 18 18 19 19 19 18 18 18 17 17 17 17 14 10 8 7 6 5 6 4 4 3 2 2 3 2 2 3 3 3 3 3 2 4 1
8 20 19 12 4 2 5 15 19 15 14 16 18 18 19 20 20 20 19 20 18 18 17 17 17 17 15 14 9 7 7 5 4 5 4 4 4 5 4 3 3 3 2 3 2 2 4 3 2
18 10 12 14 15 13 9 10 22 21 18 19 19 18 20 20 20 19 19 19 19 17 15 17 16 17 15 15 12 13 8 8 6 5 6 5 5 6 4 4 3 3 3 4 3 0 2 2 3
4 8 5 3 14 7 1 7 16 23 25 23 21 21 20 19 20 21 20 19 19 16 15 14 15 15 16 15 14 11 10 6 7 6 7 6 5 6 5 5 5 4 3 4 4 3 2 1 2
7 13 11 6 3 8 13 13 16 22 23 23 21 20 20 20 19 19 17 15 15 14 12 12 15 15 15 14 15 14 11 10 8 8 8 6 6 6 6 6 5 5 5 5 4 3 3 3 3
6 12 5 5 3 3 20 17 14 13 18 20 22 21 19 18 18 17 17 16 15 15 13 12 14 15 15 15 13 12 12 13 11 11 7 8 7 6 8 7 6 5 5 5 5 4 4 3 3
12 10 4 7 7 8 3 14 11 20 15 12 13 13 20 19 16 17 17 15 14 13 14 15 15 14 14 14 13 10 12 8 7 9 9 8 7 7 9 7 7 7 6 5 5 4 4 4 4
6 8 1 2 1 6 9 6 8 8 9 10 10 9 10 14 14 13 12 14 14 14 14 14 14 13 13 13 10 10 10 10 8 10 9 7 8 7 9 9 8 8 7 6 6 4 4 4 3
3 4 4 2 6 6 8 10 8 10 16 16 15 14 11 10 11 10 11 11 11 12 11 12 13 13 12 11 10 9 9 8 10 9 10 10 9 11 10 9 8 8 7 6 5 4 4 4 4
4 3 5 2 4 3 3 4 6 14 14 15 14 13 10 11 10 11 10 10 10 10 10 11 12 14 12 12 11 10 10 11 10 8 8 9 10 10 10 9 8 7 7 6 5 5 5 4 5
7 7 11 4 4 2 3 2 6 5 6 5 5 7 7 9 9 9 10 11 11 11 11 12 12 12 12 12 12 11 11 11 10 10 10 10 10 10 9 9 8 8 7 6 5 6 6 7 7
Wind_Direction
173 188 218 233 237 238 250 193 29 155 151 94 128 223 50 20 10 59 134 119 134 135 132 146 131 114 113 112 113 111 104 96 94 94 95 88 90 101 91 86 83 76 71 69 68 64 59 53 50
161 179 230 271 248 215 224 151 191 167 114 158 117 153 194 83 70 133 126 138 141 137 146 138 129 120 118 115 114 111 104 97 95 93 93 87 75 75 100 97 79 72 70 68 65 61 56 52 47
217 244 264 222 235 251 164 156 182 112 141 152 143 326 42 84 114 143 125 139 140 140 151 123 131 128 125 123 122 119 103 101 98 96 97 91 81 67 80 83 71 70 68 65 60 54 51 47 44
184 215 249 247 229 245 303 152 137 148 160 188 166 134 93 359 141 127 142 144 145 136 147 132 134 129 128 125 124 120 108 105 102 98 95 92 84 76 74 75 71 68 64 60 55 47 42 40 45
241 265 251 231 244 235 247 257 169 176 166 181 198 129 88 124 111 136 146 152 143 144 125 138 130 130 131 130 131 119 115 114 110 106 99 95 89 80 74 71 67 60 55 52 48 43 39 44 44
236 246 243 235 230 216 225 206 182 193 169 165 189 132 122 144 127 160 150 151 150 130 142 135 131 133 134 131 123 122 133 135 127 118 108 99 90 83 76 69 64 56 50 47 47 42 41 42 40
250 242 244 246 238 211 216 196 199 194 182 170 170 169 102 161 147 166 156 149 151 140 142 144 144 136 128 132 128 123 102 91 112 123 109 91 85 83 74 66 59 55 50 48 46 41 31 29 33
249 252 258 246 246 227 163 177 203 197 182 118 178 183 164 171 168 156 154 151 143 154 153 151 154 162 160 146 125 121 108 99 95 119 112 115 120 121 128 125 68 52 50 48 44 38 22 8 51
269 254 241 236 227 239 148 188 206 112 148 183 178 331 110 146 170 157 157 158 152 160 175 158 155 165 129 144 139 130 112 104 117 130 134 196 187 150 139 69 69 55 49 54 40 25 354 315 145
220 226 243 244 246 244 189 203 174 179 178 183 163 118 124 149 163 166 167 165 165 167 178 161 164 166 155 158 157 164 150 169 182 186 182 173 103 66 57 114 173 164 178 172 156 211 251 16 44
239 237 237 258 257 274 212 211 173 203 198 200 187 155 147 159 163 170 175 170 168 167 168 167 166 166 163 161 166 155 163 150 148 145 160 122 142 166 165 122 147 76 185 59 345 39 28 45 31
241 236 246 259 254 251 225 207 196 211 183 209 181 160 161 168 171 172 181 169 172 170 167 169 170 168 170 158 171 159 159 158 156 154 153 162 171 158 31 27 0 13 12 4 5 52 37 65 52
230 246 228 241 241 240 255 222 206 210 108 189 142 155 169 174 177 178 182 170 172 173 170 174 172 173 168 169 167 162 146 168 156 159 159 199 194 214 315 6 4 12 359 350 352 19 70 80 88
232 238 253 237 226 218 217 227 208 211 139 157 152 166 173 180 177 178 182 175 179 177 177 174 177 177 170 174 163 157 159 148 168 154 157 189 249 281 327 8 25 356 354 0 6 54 80 101 99
289 227 244 230 215 217 214 210 222 205 166 166 172 171 175 182 181 183 183 181 182 180 177 178 179 181 171 170 165 165 168 163 164 150 170 163 224 215 20 80 12 24 28 335 170 89 93 105 104
199 245 216 207 189 202 202 214 221 192 177 178 180 174 177 184 187 187 186 184 186 181 181 177 179 180 178 177 171 173 160 186 172 163 156 151 123 305 85 184 102 64 91 163 129 108 122 115 86
198 205 209 234 202 176 200 226 193 172 191 184 184 179 179 184 190 188 187 191 186 184 179 178 180 183 183 179 176 169 167 171 159 169 158 148 121 73 288 48 103 147 112 89 122 91 122 107 102
188 212 199 205 192 207 197 230 169 178 193 195 187 184 183 185 189 186 187 190 185 185 180 181 181 185 182 176 174 161 170 165 158 153 141 140 131 152 148 127 119 95 98 115 145 103 85 140 123
200 201 201 204 176 191 200 218 188 194 203 207 188 192 187 191 182 183 185 184 186 190 184 184 184 185 179 178 178 181 180 162 161 152 148 152 150 142 146 124 109 94 99 102 138 143 152 136 129
198 200 224 152 167 214 202 216 227 199 211 206 203 194 192 189 180 182 184 187 193 191 193 191 188 186 186 180 183 178 161 181 154 126 133 120 134 100 115 135 116 111 127 128 167 166 145 103 103
200 201 206 199 148 261 197 234 220 208 224 226 224 211 197 192 184 184 186 192 193 197 196 196 193 190 185 188 171 152 137 115 148 161 145 159 155 121 123 132 124 124 131 111 109 198 190 150 140
211 209 203 217 172 204 226 236 212 211 209 212 211 221 206 197 192 188 191 196 197 199 196 200 196 194 190 189 168 176 187 168 175 157 162 153 140 131 125 125 136 117 104 110 104 109 139 244 165
200 139 157 282 184 138 298 253 238 196 209 207 207 208 214 207 198 193 192 197 200 196 197 196 196 199 189 193 182 188 197 177 146 146 141 154 153 130 150 138 128 119 114 110 130 141 125 72 117
144 96 56 42 21 200 183 199 226 230 212 209 205 213 205 207 204 201 196 192 198 190 196 194 196 198 193 198 191 194 178 156 147 150 157 166 164 148 161 142 139 129 133 137 117 101 89 84 75
128 132 116 187 188 240 178 205 230 212 201 220 208 204 206 201 201 196 195 189 194 184 186 190 197 196 197 194 196 194 168 173 163 159 159 163 173 170 166 154 153 151 144 133 130 117 104 88 88
164 156 174 166 185 158 235 220 222 235 260 215 216 226 209 198 198 194 194 186 191 181 188 188 194 196 192 191 195 179 163 166 167 184 164 172 173 172 155 164 157 146 146 144 136 121 108 108 98
171 222 74 29 159 170 194 224 281 232 244 183 214 215 234 200 188 187 184 186 186 183 186 187 187 189 185 194 175 159 167 161 159 173 171 163 159 151 159 159 160 160 154 154 152 133 128 117 111
224 147 174 212 183 221 194 232 244 194 211 211 203 205 207 208 189 186 185 183 183 178 178 181 179 174 176 169 158 163 161 158 160 164 165 161 155 158 164 161 164 158 157 158 155 143 137 131 105
120 167 235 264 294 288 237 227 8 203 211 207 209 202 177 171 183 184 172 169 169 164 167 168 167 163 167 167 161 154 160 168 161 158 159 162 154 160 164 166 158 160 166 170 166 153 148 138 136
224 212 204 213 184 295 23 296 340 34 39 16 58 172 155 154 163 163 158 157 159 161 167 165 163 164 170 167 161 162 163 160 164 171 162 156 161 168 163 162 159 169 180 163 170 167 168 175 180